User: anonymous   Login
Location: *
(46.1006°N, 1.8394°E)
Time: 14:35:46
(UTC+00:00)
Language:

COSMOS 2428 - Orbit

View from above orbital plane
View from above orbital plane
View from above satellite
View from above satellite

Ground track
Ground track

The orbit data is extracted from the following two-line orbital elements,

1 31792U 07029A   19316.14706774 -.00000194  00000-0 -79193-4 0  9995
2 31792  70.9335  11.2276 0008847  20.4803 339.6670 14.12420435638045
Epoch (UTC): 12 November 2019 03:31:46
Eccentricity: 0.0008847
inclination: 70.9335°
perigee height: 845 km
apogee height: 857 km
right ascension of ascending node: 11.2276°
argument of perigee: 20.4803°
revolutions per day: 14.12420435
mean anomaly at epoch: 339.6670°
orbit number at epoch: 63804

The dashed part of the orbit path shows where the satellite is in the earth's shadow,  

DLR